Location: Julian California
(33.0790°N, 116.6010°W)
Time: 09:35:15
(UTC-07:00)

Cosmos 1697 Rocket - Pass Details

Date: 22 March 2019
Orbit: 834 x 842 km, 71.0° (Epoch: 20 April)

Event Time Altitude Azimuth Distance (km) Brightness Sun altitude
Rises 05:16:34 0° 350° (N) 3,388 5.9 -19.7°
Reaches altitude 10° 05:19:17 10° 360° (N) 2,449 5.3 -19.2°
Maximum altitude 05:24:17 32° 63° (ENE) 1,384 4.5 -18.2°
Drops below altitude 10° 05:29:15 10° 126° (SE) 2,434 5.7 -17.1°
Sets 05:31:55 0° 136° (SE) 3,363 6.3 -16.6°
